OBJECT M, 63993

Orbit data source: Space-Track

You're viewing an Uncataloged Satellite

Recently launched and/or uncataloged satellites may have evolving metadata. Metadata may include but not limited to: Owner, Maufacturer, Bus, Motor, and Mission.

OBJECT M, 63993 is a Chinese satellite in SSO that was launched on Wed, 14 May 2025 UTC via a CHANG ZHENG 2D launch vehicle from the Jiuquan Satellite Launch Center, China (JSC). Unknown objects in Earth's orbit typically refer to objects detected orbiting the Earth but have not yet been identified or cataloged. These objects could be anything from previously untracked satellites, spent rocket stages, debris from satellite collisions, or even natural meteoroids temporarily captured by Earth's gravity.

Loading next visibility...
Identifier
63993, 2025-100M
Orbit
SSO
Country
Flag of CNCN / PRC
Related business
None
Manufacturer
Unknown
Mission
Operational Commercial Technology
Bus & Motor
Unknown
Mass
Unknown
Launch date (UTC)
2025-05-14 (1 year ago)
Launch vehicle
CHANG ZHENG 2D
Launch site
Jiuquan Satellite Launch Center, China (JSC)
Object type
Unknown
Shape & HBR
Box + 2 Pan, 0.9 m
Radar Cross Section
0.135 m², Large (>1 m²)

Expand to show TLE details & history
Last TLE update: 3 days ago

TLE from 3 days ago
0 OBJECT M
1 63993U 25100M   26204.14978708  .00033800  00000-0  96540-3 0  9997
2 63993  97.3642 280.5498 0010137 166.4547 193.6971 15.35888409 66373
Epoch: 2026-07-23T03:35Z
TLE epoch observation values (Epoch: 2026-07-23T03:35:41.603Z)
Latitude
-0.00003°
Longitude
-74.26845°
Altitude
468.131 km
Speed
7.628 km/s
True Right ascension
18h 42m 11s
True Declination
0° 00' 00"
Sunlit
Object was in full shadow at epoch
Visualization orbit readout
Latitude
Unknown
Longitude
Unknown
Altitude
Unknown
Speed
Unknown
Apparent Right ascension
Unknown
Apparent Declination
Unknown
Sunlit
N/A
Visualization observer readout
Local Sidereal Time
15:19:50
Azimuth
Unknown
Elevation
Unknown
Doppler factor
Unknown
Orbital elements
Apogee altitude
462.153 km
Perigee altitude
448.299 km
Semi-major axis
6,833.363 km
Eccentricity
0.00101
Inclination
97.3642°
RAAN
280.5498°
Arg. of periapsis
166.4547°
True anomaly
193.66963°
Mean anomaly
193.6971°
Eccentric anomaly
193.68336°
Mean motion
3.8423 °/min
Orbital period
93.69 mins
BSTAR
0.0009654
Loading maneuver chart data...
Computing Atmospheric mass density...
Loading historical data...
Loading historical data...
Loading historical data...
Loading historical data...
Loading historical data...
Loading historical data...
Loading historical data...

Documentation

Showing up to 5 results
|